Tracking 27380 objects as of 5-Jun-2023
HD Live streaming from Space Station
objects crossing your sky now

THOR ABLESTAR DEB

Track THOR ABLESTAR DEB now!
10-day predictions


NORAD ID: 210
Int'l Code: 1961-015BE
Perigee: 906.1 km
Apogee: 987.2 km
Inclination: 66.5 °
Period: 103.8 minutes
Semi major axis: 7317 km
RCS: 0.1684 m2 (medium)
Launch date: June 29, 1961
Source: United States (US)
Launch site: AIR FORCE EASTERN TEST RANGE (AFETR)

Note: This is SATELLITE DEBRIS
Your satellite tracking list
Your tracking list is empty




NASA's NSSDC Master Catalog

Two Line Element Set (TLE):
1 00210U 61015BE  23155.89157632  .00000476  00000-0  46817-3 0  9999
2 00210  66.4571 216.4705 0055373 287.0365  72.4647 13.86902913111581
Source of the keplerian elements: AFSPC